Historique des stations

Station météo de Ambillou

Altitude de la station : 68 m







Données météorologiques pour le 02/12/2021
Date
Heure
Températures Humidité Point de rosée Vitesse
du vent
Direction Rafales Windchill Pression Pluviométrie
Cumul
Date
Heure
Températures Humidité Point de rosée Vitesse
du vent
Direction Rafales Windchill Pression Pluviométrie
Cumul
02/12/2021 17:023.4 °C85 %1.1 °C-O23 km/h2.41012 hPa0.0 mm
02/12/2021 16:473.7 °C84 %1.2 °C-O23 km/h2.11012 hPa0.0 mm
02/12/2021 16:323.7 °C83 %1.1 °C-OSO23 km/h1.91012 hPa0.0 mm
02/12/2021 16:174.1 °C82 %1.3 °C-O23 km/h2.01012 hPa0.0 mm
02/12/2021 16:024.4 °C81 %1.4 °C-NO23 km/h2.21012 hPa0.0 mm
02/12/2021 15:484.7 °C81 %1.7 °C-OSO23 km/h2.61011 hPa0.0 mm
02/12/2021 15:334.8 °C80 %1.6 °C-OSO23 km/h2.61011 hPa0.0 mm
02/12/2021 15:175.1 °C80 %1.9 °C-SO19 km/h4.01011 hPa0.0 mm
02/12/2021 15:035.1 °C81 %2.1 °C-ONO19 km/h4.11012 hPa0.0 mm
02/12/2021 14:485.1 °C80 %1.9 °C-ONO19 km/h4.31011 hPa0.0 mm
02/12/2021 14:335.1 °C80 %1.9 °C-OSO19 km/h4.31011 hPa0.0 mm
02/12/2021 14:185.2 °C81 %2.2 °C-OSO19 km/h5.21011 hPa0.0 mm
02/12/2021 14:035.3 °C80 %2.1 °C-N19 km/h4.51011 hPa0.0 mm
02/12/2021 13:485.2 °C81 %2.2 °C-ONO19 km/h5.21011 hPa0.0 mm
02/12/2021 13:335.2 °C81 %2.2 °C-ONO19 km/h4.31011 hPa0.0 mm
02/12/2021 13:184.8 °C83 %2.2 °C-O19 km/h3.91012 hPa0.0 mm
02/12/2021 13:035.1 °C83 %2.4 °C-ONO19 km/h3.71012 hPa0.0 mm
02/12/2021 12:484.1 °C85 %1.8 °C-NNE19 km/h3.11012 hPa0.0 mm
02/12/2021 12:334.2 °C85 %1.9 °C-ONO19 km/h3.01012 hPa0.0 mm
02/12/2021 12:183.9 °C85 %1.6 °C-NO19 km/h2.41012 hPa0.0 mm
02/12/2021 12:033.9 °C85 %1.6 °C-NO19 km/h2.31012 hPa0.0 mm
02/12/2021 11:484.1 °C86 %2.0 °C-ONO16 km/h2.61012 hPa0.0 mm
02/12/2021 11:333.9 °C86 %1.8 °C-OSO15 km/h3.91012 hPa0.0 mm
02/12/2021 11:183.8 °C85 %1.5 °C-NO15 km/h3.81012 hPa0.0 mm
02/12/2021 11:033.9 °C86 %1.8 °C-ONO15 km/h3.91012 hPa0.0 mm
02/12/2021 10:483.9 °C88 %2.1 °C-ONO15 km/h3.91011 hPa0.0 mm
02/12/2021 10:333.2 °C90 %1.7 °C-ONO15 km/h3.21011 hPa0.0 mm
02/12/2021 10:182.7 °C90 %1.2 °C-OSO15 km/h1.61011 hPa0.0 mm
02/12/2021 10:032.3 °C91 %1.0 °C-ONO15 km/h1.11011 hPa0.0 mm
02/12/2021 09:482.1 °C91 %0.8 °C-ONO15 km/h2.11011 hPa0.0 mm
02/12/2021 09:331.7 °C91 %0.4 °C-ONO15 km/h1.71010 hPa0.0 mm
02/12/2021 09:181.4 °C91 %0.1 °C-ONO15 km/h1.41010 hPa0.0 mm
02/12/2021 09:031.6 °C91 %0.3 °C-ONO15 km/h1.61010 hPa0.0 mm
02/12/2021 08:481.6 °C91 %0.3 °C-ONO15 km/h1.61010 hPa0.0 mm
02/12/2021 08:331.7 °C91 %0.4 °C-ONO15 km/h1.71010 hPa0.0 mm
02/12/2021 08:181.9 °C91 %0.6 °C-ONO15 km/h1.91009 hPa0.0 mm
02/12/2021 08:032.0 °C91 %0.7 °C-ONO15 km/h2.01009 hPa0.0 mm
02/12/2021 07:482.2 °C91 %0.9 °C-NO15 km/h2.21009 hPa0.0 mm
02/12/2021 07:332.6 °C92 %1.4 °C-N15 km/h2.61009 hPa0.0 mm
02/12/2021 07:172.7 °C92 %1.5 °C-ONO15 km/h2.71008 hPa0.0 mm
02/12/2021 07:032.9 °C92 %1.7 °C-NO15 km/h2.91008 hPa0.0 mm
02/12/2021 06:483.2 °C92 %2.0 °C-N15 km/h3.21008 hPa0.0 mm
02/12/2021 06:333.3 °C92 %2.1 °C-N15 km/h3.31008 hPa0.0 mm
02/12/2021 06:183.6 °C92 %2.4 °C-NO15 km/h3.61007 hPa0.0 mm
02/12/2021 06:033.6 °C92 %2.4 °C-N15 km/h2.61007 hPa0.0 mm
02/12/2021 05:483.6 °C92 %2.4 °C-NNO15 km/h2.61007 hPa0.0 mm
02/12/2021 05:333.4 °C93 %2.4 °C-ONO15 km/h2.41007 hPa0.0 mm
02/12/2021 05:173.2 °C93 %2.2 °C-NO15 km/h3.21007 hPa0.0 mm
02/12/2021 05:022.8 °C92 %1.6 °C-ONO15 km/h2.81007 hPa0.0 mm
02/12/2021 04:472.7 °C92 %1.5 °C-ONO15 km/h2.71006 hPa0.0 mm
02/12/2021 04:322.7 °C92 %1.5 °C-ONO15 km/h2.71006 hPa0.0 mm
02/12/2021 04:172.7 °C92 %1.5 °C-OSO15 km/h2.71006 hPa0.0 mm
02/12/2021 04:032.7 °C92 %1.5 °C-OSO15 km/h2.71006 hPa0.0 mm
02/12/2021 03:472.8 °C92 %1.6 °C-NO15 km/h2.81006 hPa0.0 mm
02/12/2021 03:322.8 °C92 %1.6 °C-NO15 km/h2.81006 hPa0.0 mm
02/12/2021 03:172.9 °C92 %1.7 °C-ONO15 km/h2.91005 hPa0.0 mm
02/12/2021 03:022.9 °C92 %1.7 °C-ONO15 km/h1.81005 hPa0.0 mm
02/12/2021 02:472.8 °C92 %1.6 °C-ONO15 km/h2.81005 hPa0.0 mm
02/12/2021 02:322.7 °C92 %1.5 °C-O11 km/h2.71005 hPa0.0 mm
02/12/2021 02:032.6 °C91 %1.3 °C-O11 km/h2.61005 hPa0.0 mm
02/12/2021 01:502.9 °C91 %1.6 °C-OSO11 km/h2.91005 hPa0.0 mm
02/12/2021 01:362.9 °C91 %1.6 °C-O11 km/h2.91005 hPa0.0 mm
02/12/2021 00:513.6 °C91 %2.3 °C-O11 km/h3.61005 hPa0.0 mm
02/12/2021 00:323.8 °C91 %2.5 °C-O11 km/h3.81005 hPa0.0 mm
02/12/2021 00:174.2 °C91 %2.9 °C-O11 km/h3.21005 hPa0.0 mm
02/12/2021 00:024.3 °C91 %3.0 °C-O11 km/h3.41004 hPa0.0 mm


Minima :

Température : 1.4 °C
Humidité : 80 %
Point de rosée : 0.1 °C
Vent moyen : - km/h
Windchill : 1.1
Pression atm. : 1004 hPa
Maxima :

Température : 5.3 °C
Humidité : 93 %
Point de rosée : 3.0 °C
Vent moyen : 0 km/h
Windchill : 5.2
Pression atm. : 1012 hPa
Rafales max : 23 km/h
Cumul de pluie sur 24H : 0 mm

Ambillou est une commune du département Indre-et-Loire (37).
La station météorologique du réseau de l'association la plus proche de Ambillou n'a pas encore été identifiée.



Icône Facebook Association Météo Centre Icône Twitter Association Météo Centre Icône Chaîne Youtube Association Météo Centre Icône contact Association Météo Centre Icône Insta Association Météo Centre